Manchester, NH

12:56 PM EDT on August 18, 2017 (GMT -0400)
Manchester

Weather History for KMHT - July, 2013

Change the Weather History Date:

Monday, July 8, 2013

  Actual Average Record
Temperature  
Mean Temperature 74 °F 72 °F  
Max Temperature 84 °F 82 °F 92 °F (2010)
Min Temperature 66 °F 62 °F 43 °F (1969)
Degree Days  
Heating Degree Days 0 0  
Month to date heating degree days 0  
Since 1 June heating degree days 58  
Since 1 July heating degree days 0  
Cooling Degree Days 9 7  
Month to date cooling degree days 56  
Year to date cooling degree days 206  
Since 1 June cooling degree days 176  
Growing Degree Days 24 (Base 50)    
Moisture  
Dew Point 69 °F    
Average Humidity 84    
Maximum Humidity 100    
Minimum Humidity 67    
Precipitation  
Precipitation 0.77 in 0.11 in 1.88 in (2004)
Month to date precipitation 0.90  
Year to date precipitation 22.73  
Snow  
Snow 0.00 in - - ()
Month to date snowfall  
Since 1 July snowfall  
Snow Depth -    
Sea Level Pressure  
Sea Level Pressure 29.99 in    
Wind  
Wind Speed 5 mph (ENE)    
Max Wind Speed 14 mph    
Max Gust Speed 18 mph    
Visibility 8 miles    
Events Rain , Thunderstorm    
T = Trace of Precipitation, MM = Missing Value Source: NWS Daily Summary

Daily Weather History Graph

Daily Weather History Graph

Search for Another Location

Airport or City:

Trip Planner

Search our weather history database for the weather conditions in past years. The results will help you decide how hot, cold, wet, or windy it might be!

Date:

Astronomy

Jul. 08, 2013 Rise Set
Actual Time 5:15 AM EDT 8:26 PM EDT
Civil Twilight 4:40 AM EDT 9:00 PM EDT
Nautical Twilight 3:55 AM EDT 9:45 PM EDT
Astronomical Twilight 3:01 AM EDT 10:38 PM EDT
Moon 5:43 AM EDT (7/8) 8:23 PM EDT (7/8)
Length of Visible Light 16h 20m
Length of Day
15h 11m
New Moon, 0% of the Moon is Illuminated
Jul 8
New Moon
Jul 15
First Quarter
Jul 22
Full
Jul 29
Last Quarter
Aug 6
New

Hourly Weather History & Observations

Time (EDT) Temp. Heat Index Dew Point Humidity Pressure Visibility Wind Dir Wind Speed Gust Speed Precip Events Conditions
12:53 AM 77.0 °F - 70.0 °F 79% 29.93 in 10.0 mi Calm Calm - N/A   Clear
1:53 AM 75.9 °F - 71.1 °F 85% 29.94 in 10.0 mi Calm Calm - N/A   Clear
2:53 AM 75.9 °F - 70.0 °F 82% 29.93 in 10.0 mi Calm Calm - N/A   Mostly Cloudy
3:53 AM 75.0 °F - 71.1 °F 87% 29.93 in 10.0 mi Calm Calm - N/A   Clear
4:53 AM 75.0 °F - 71.1 °F 87% 29.93 in 10.0 mi Calm Calm - N/A   Clear
5:53 AM 75.0 °F - 71.1 °F 87% 29.94 in 10.0 mi West 3.5 mph - N/A   Clear
6:53 AM 75.9 °F - 71.1 °F 85% 29.95 in 10.0 mi Calm Calm - N/A   Mostly Cloudy
7:53 AM 78.1 °F - 70.0 °F 76% 29.96 in 10.0 mi NNW 5.8 mph - N/A   Mostly Cloudy
8:53 AM 80.1 °F 82.9 °F 69.1 °F 69% 29.97 in 10.0 mi North 6.9 mph - N/A   Mostly Cloudy
9:53 AM 82.0 °F 86.3 °F 71.1 °F 69% 29.97 in 10.0 mi ENE 6.9 mph - N/A   Scattered Clouds
10:53 AM 82.0 °F 86.7 °F 72.0 °F 71% 29.97 in 10.0 mi NE 8.1 mph - N/A   Mostly Cloudy
11:07 AM 82.4 °F 87.2 °F 71.6 °F 70% 29.95 in 10.0 mi ENE 8.1 mph - N/A   Mostly Cloudy
11:35 AM 80.6 °F 84.6 °F 71.6 °F 74% 29.95 in 6.0 mi East 5.8 mph - 0.02 in Rain Heavy Rain
11:53 AM 78.1 °F - 73.0 °F 84% 29.98 in 6.0 mi SE 8.1 mph - 0.06 in Rain Light Rain
12:31 PM 78.8 °F - 73.4 °F 83% 29.97 in 8.0 mi ESE 9.2 mph - 0.00 in   Mostly Cloudy
12:49 PM 78.8 °F - 73.4 °F 83% 29.96 in 10.0 mi ESE 11.5 mph - 0.00 in   Scattered Clouds
12:53 PM 79.0 °F - 72.0 °F 79% 29.99 in 10.0 mi East 12.7 mph - 0.00 in   Scattered Clouds
1:53 PM 80.1 °F 83.2 °F 70.0 °F 71% 29.98 in 10.0 mi East 11.5 mph - N/A   Mostly Cloudy
2:53 PM 81.0 °F 84.1 °F 69.1 °F 67% 29.98 in 10.0 mi ESE 10.4 mph 18.4 mph N/A   Scattered Clouds
3:53 PM 80.1 °F 82.9 °F 69.1 °F 69% 29.98 in 10.0 mi ESE 11.5 mph - N/A   Mostly Cloudy
4:37 PM 73.4 °F - 71.6 °F 94% 29.97 in 2.0 mi NNE 11.5 mph - 0.17 in Rain Heavy Rain
4:53 PM 73.0 °F - 72.0 °F 96% 30.01 in 2.0 mi NNE 13.8 mph - 0.29 in Rain Rain
4:58 PM 71.6 °F - 71.6 °F 100% 29.98 in 1.0 mi NE 5.8 mph - 0.11 in Rain Heavy Rain
5:17 PM 71.6 °F - 69.8 °F 94% 29.98 in 2.5 mi East 9.2 mph - 0.25 in Rain Rain
5:19 PM 71.6 °F - 69.8 °F 94% 29.98 in 5.0 mi East 10.4 mph - 0.25 in Rain Rain
5:41 PM 73.4 °F - 69.8 °F 88% 29.97 in 8.0 mi East 10.4 mph - 0.26 in Rain , Thunderstorm Light Thunderstorms and Rain
5:53 PM 73.0 °F - 70.0 °F 90% 29.99 in 10.0 mi East 8.1 mph - 0.26 in   Mostly Cloudy
6:38 PM 71.6 °F - 68.0 °F 88% 29.99 in 10.0 mi Calm Calm - 0.03 in Rain Light Rain
6:53 PM 71.1 °F - 68.0 °F 90% 30.03 in 8.0 mi NE 6.9 mph - 0.03 in   Overcast
7:26 PM 69.8 °F - 66.2 °F 88% 30.01 in 10.0 mi NE 6.9 mph - N/A   Mostly Cloudy
7:51 PM 69.8 °F - 64.4 °F 83% 30.02 in 8.0 mi NE 5.8 mph - 0.02 in   Mostly Cloudy
7:53 PM 69.1 °F - 64.9 °F 87% 30.05 in 8.0 mi NNE 4.6 mph - 0.02 in   Mostly Cloudy
8:53 PM 68.0 °F - 64.0 °F 87% 30.07 in 10.0 mi NNE 6.9 mph - N/A   Mostly Cloudy
9:53 PM 66.9 °F - 64.0 °F 90% 30.08 in 6.0 mi North 4.6 mph - 0.11 in Rain Rain
10:18 PM 66.2 °F - 64.4 °F 94% 30.05 in 10.0 mi North 4.6 mph - 0.00 in   Overcast
10:44 PM 66.2 °F - 64.4 °F 94% 30.05 in 10.0 mi NNE 3.5 mph - 0.00 in   Overcast
10:53 PM 66.0 °F - 64.0 °F 93% 30.09 in 10.0 mi Calm Calm - 0.00 in   Overcast
11:53 PM 66.0 °F - 63.0 °F 90% 30.10 in 10.0 mi Calm Calm - N/A   Overcast